Regional Weather Roundup
Issued by NWS

Home | Current Version | Previous Version | Text Only | Print | Product List | Glossary Off
Versions: 1 2 3 4 5 6 7 8 9 10 11 12 13 14 15 16 17 18 19 20 21 22 23 24 25 26 27 28 29 30 31

000
ASUS43 KDMX 292307
RWRIA

WEATHER ROUNDUP FOR IOWA
NATIONAL WEATHER SERVICE DES MOINES IA
600 PM CDT WED OCT 29 2014

NOTE: "FAIR" INDICATES FEW OR NO CLOUDS BELOW 12,000 FEET WITH NO
SIGNIFICANT WEATHER AND/OR OBSTRUCTIONS TO VISIBILITY.

* - THESE STATIONS ARE NOT NWS STATIONS...THUS NOT UNDER NWS
QUALITY CONTROL.  THEY ALSO DO NOT REPORT WEATHER SUCH
AS PRECIPITATION OR FOG.

IAZ001>003-012>014-020>022-031>034-043>046-300000-
   NORTHWEST IOWA

CITY           SKY/WX    TMP DP  RH WIND       PRES   REMARKS
CARROLL *      CLEAR     50  32  50 S3        30.09F
CHEROKEE *     CLEAR     48  36  61 S5        30.08S
DENISON *      CLEAR     52  32  46 S5        30.08S
LE MARS *      CLEAR     50  32  50 S8        30.07F
ORANGE CITY *  CLEAR     50  30  46 S3        30.07S
SHELDON *      CLEAR     48  30  49 S6        30.06S
SIOUX CITY     CLEAR     53  30  41 SE6       30.07F
SPENCER        CLEAR     48  30  49 S6        30.07F
STORM LAKE *   CLEAR     48  30  49 S5        30.09S
$$

IAZ055>058-069>071-079>083-090>094-300000-
   SOUTHWEST IOWA

CITY           SKY/WX    TMP DP  RH WIND       PRES   REMARKS
ATLANTIC *     CLEAR     52  32  46 S5        30.10F
AUDUBON *      CLEAR     50  28  43 S5        30.11F
CLARINDA *     CLEAR     54  32  43 CALM      30.13F HAZE
COUNCIL BLFS * CLEAR     50  34  53 S6        30.08F
CRESTON *      CLEAR     50  32  50 SW5       30.12F
HARLAN  *      CLEAR     52  30  43 S5        30.13F
LAMONI         CLEAR     53  35  50 CALM      30.13S
RED OAK *      CLEAR     54  30  40 S5        30.11F
SHENANDOAH *   CLEAR     55  30  38 S3        30.12S
$$

IAZ047>049-059>061-072>074-084-300000-
   CENTRAL IOWA

CITY           SKY/WX    TMP DP  RH WIND       PRES   REMARKS
AMES           CLEAR     50  33  52 W3        30.11F
ANKENY *       CLEAR     50  34  53 CALM      30.12S
CHARITON *     CLEAR     52  34  50 CALM      30.13S
DES MOINES     CLEAR     52  32  46 W3        30.12F
GRINNELL*      CLEAR     48  32  53 CALM      30.13F
KNOXVILLE *    CLEAR     50  34  53 CALM      30.12S
MARSHALLTOWN   CLEAR     48  33  56 CALM      30.11F
PELLA *        CLEAR     50  34  53 CALM      30.14F
PERRY *          N/A     50  34  53 S5        30.11S
$$

IAZ004>006-015-016-023>025-035-036-300000-
   NORTH CENTRAL IOWA

CITY           SKY/WX    TMP DP  RH WIND       PRES   REMARKS
ALGONA *       CLEAR     48  32  53 CALM      30.09F
CLARION *      CLEAR     46  32  57 W6        30.10F
ESTHERVILLE    CLEAR     47  29  49 SW7       30.07F
FORT DODGE *   CLEAR     48  32  53 SW3       30.10F
MASON CITY     CLEAR     45  33  63 CALM      30.11F
FOREST CITY *  CLEAR     45  34  65 CALM      30.09F
IOWA FALLS *     N/A     48  34  57 CALM      30.12S
$$

IAZ007>011-017>019-026>030-037>042-050>054-066-300000-
   NORTHEAST IOWA

CITY           SKY/WX    TMP DP  RH WIND       PRES   REMARKS
CEDAR RAPIDS   CLEAR     44  33  65 NW6       30.12F
CHARLES CITY * CLEAR     43  32  65 W6        30.12S
CLINTON *      CLEAR     45  30  57 N3        30.15S
DECORAH *      CLEAR     43  32  65 CALM      30.10F
DUBUQUE        CLEAR     41  33  73 N6        30.12S
MONTICELLO *   CLEAR     46  32  57 NW6       30.12S
OELWEIN *      CLEAR     45  32  61 CALM      30.12F
WATERLOO       CLEAR     46  31  55 W3        30.12S
$$

IAZ064-065-067-068-078-300000-
   EAST CENTRAL IOWA

CITY           SKY/WX    TMP DP  RH WIND       PRES   REMARKS
DAVENPORT      CLEAR     47  30  51 NW5       30.14R
IOWA CITY      CLEAR     47  34  60 NW6       30.15S
MT. PLEASANT * CLEAR     46  34  61 NW3       30.15S
MUSCATINE *    CLEAR     48  32  53 W6        30.15R
QUAD CITIES    CLEAR     49  31  49 NW8       30.13S
$$

IAZ062-063-075>077-085>089-095>099-300000-
   SOUTHEAST IOWA

CITY           SKY/WX    TMP DP  RH WIND       PRES   REMARKS
BURLINGTON     CLEAR     49  34  56 NW5       30.15R
FAIRFIELD *    CLEAR     48  34  57 N5        30.15S
FORT MADISON * CLEAR     48  37  66 NW3       30.16S
KEOKUK *       CLEAR     50  36  57 NW3       30.14S
OSKALOOSA *      N/A     48  34  57 NW3       30.14F HAZE
CENTERVILLE *  CLEAR     50  34  53 W3        30.15S
OTTUMWA        CLEAR     48  33  56 NW5       30.14S
WASHINGTON *   CLEAR     46  34  61 NW6       30.15S
$$

ABBREVIATIONS USED IN REMARKS
   TC - TEMPERATURES IN CELSIUS
  WCI - WIND CHILL INDEX
   HX - HEAT INDEX
  VSB - VISIBILITY
$$




USA.gov is the U.S. government's official web portal to all federal, state and local government web resources and services.